KAC101 OMDB-OKKK

Flight info

Callsign KAC101
Flight time 1h 25m
Altitude 36000
Route RIDAP M557 TUMAK M600 KUMBO/N0381F240 A453 DEBTI
Aircraft A320/M-SDE3FGHIJ1RWY/LB1

Departure

Time 2026-04-23 17:31
Airport Dubai International Airport (OMDB)

Arrival

Time 2026-04-23 18:56
Airport Kuwait International Airport (OKKK)
Time Latitude Longitude Altitude Speed Heading
2026-04-23 17:16 25.26018 55.34472 21 ft 0 kts 121°
2026-04-23 17:20 25.25999 55.34517 21 ft 4 kts 102°
2026-04-23 17:21 25.26014 55.34559 21 ft 2 kts 44°
2026-04-23 17:21 25.26037 55.34575 21 ft 8 kts 33°
2026-04-23 17:21 25.26103 55.34645 21 ft 4 kts 48°
2026-04-23 17:22 25.26121 55.34667 21 ft 3 kts 48°
2026-04-23 17:22 25.26173 55.34729 21 ft 5 kts 45°
2026-04-23 17:23 25.26269 55.34806 22 ft 10 kts 32°
2026-04-23 17:23 25.26321 55.34841 22 ft 7 kts 32°
2026-04-23 17:23 25.26358 55.34890 23 ft 3 kts 88°
2026-04-23 17:24 25.26342 55.34929 23 ft 5 kts 122°
2026-04-23 17:24 25.26320 55.34967 23 ft 6 kts 122°
2026-04-23 17:24 25.26283 55.35034 23 ft 6 kts 122°
2026-04-23 17:25 25.26117 55.35328 22 ft 25 kts 122°
2026-04-23 17:25 25.26020 55.35497 22 ft 27 kts 122°
2026-04-23 17:26 25.25814 55.35865 22 ft 29 kts 122°
2026-04-23 17:26 25.25596 55.36254 23 ft 30 kts 121°
2026-04-23 17:27 25.25374 55.36648 21 ft 30 kts 122°
2026-04-23 17:27 25.25265 55.36843 22 ft 30 kts 122°
2026-04-23 17:27 25.25153 55.37042 23 ft 31 kts 122°
2026-04-23 17:27 25.25040 55.37243 23 ft 31 kts 122°
2026-04-23 17:28 25.24925 55.37448 24 ft 31 kts 122°
2026-04-23 17:28 25.24810 55.37651 23 ft 31 kts 122°
2026-04-23 17:28 25.24699 55.37847 22 ft 25 kts 122°
2026-04-23 17:28 25.24698 55.37974 23 ft 12 kts 31°
2026-04-23 17:29 25.24702 55.37977 23 ft 0 kts 31°
2026-04-23 17:29 25.24773 55.38014 25 ft 5 kts
2026-04-23 17:30 25.24810 55.38005 25 ft 11 kts 333°
2026-04-23 17:30 25.24856 55.37938 25 ft 26 kts 302°
2026-04-23 17:30 25.25089 55.37515 27 ft 99 kts 301°
2026-04-23 17:31 25.25554 55.36681 25 ft 153 kts 301°
2026-04-23 17:31 25.26177 55.35602 422 ft 168 kts 303°
2026-04-23 17:31 25.26874 55.34533 1059 ft 179 kts 303°
2026-04-23 17:31 25.27544 55.33346 1772 ft 185 kts 300°
2026-04-23 17:32 25.28200 55.32115 2574 ft 187 kts 299°
2026-04-23 17:32 25.28864 55.30864 3370 ft 190 kts 300°
2026-04-23 17:32 25.29534 55.29616 4106 ft 194 kts 299°
2026-04-23 17:32 25.29944 55.28135 4483 ft 215 kts 271°
2026-04-23 17:33 25.30010 55.26392 4857 ft 239 kts 275°
2026-04-23 17:33 25.30249 55.24480 5265 ft 263 kts 278°
2026-04-23 17:33 25.30567 55.22441 5941 ft 274 kts 279°
2026-04-23 17:33 25.30899 55.20338 6777 ft 279 kts 279°
2026-04-23 17:34 25.31223 55.18210 7605 ft 284 kts 279°
2026-04-23 17:34 25.31536 55.16041 8412 ft 288 kts 278°
2026-04-23 17:34 25.32111 55.11802 9872 ft 295 kts 278°
2026-04-23 17:35 25.32410 55.09522 10389 ft 309 kts 278°
2026-04-23 17:35 25.33058 55.04530 11056 ft 341 kts 278°
2026-04-23 17:35 25.33398 55.01908 11671 ft 346 kts 278°
2026-04-23 17:36 25.33742 54.99267 12279 ft 350 kts 278°
2026-04-23 17:36 25.34089 54.96596 12866 ft 353 kts 278°
2026-04-23 17:36 25.34440 54.93886 13423 ft 357 kts 278°
2026-04-23 17:36 25.34814 54.91159 13950 ft 360 kts 281°
2026-04-23 17:37 25.35508 54.88483 14445 ft 364 kts 287°
2026-04-23 17:37 25.36280 54.85815 14933 ft 367 kts 287°
2026-04-23 17:37 25.37837 54.80390 15857 ft 373 kts 287°
2026-04-23 17:38 25.38619 54.77646 16291 ft 376 kts 287°
2026-04-23 17:38 25.39407 54.74876 16710 ft 379 kts 287°
2026-04-23 17:38 25.40201 54.72087 17112 ft 382 kts 287°
2026-04-23 17:38 25.41003 54.69282 17500 ft 384 kts 287°
2026-04-23 17:39 25.41813 54.66454 17870 ft 387 kts 287°
2026-04-23 17:39 25.42627 54.63602 18224 ft 389 kts 287°
2026-04-23 17:39 25.43142 54.61793 18441 ft 391 kts 287°
2026-04-23 17:39 25.43870 54.59264 18735 ft 393 kts 287°
2026-04-23 17:40 25.44709 54.56408 19057 ft 395 kts 288°
2026-04-23 17:40 25.45578 54.53486 19372 ft 397 kts 288°
2026-04-23 17:40 25.46447 54.50564 19672 ft 400 kts 288°
2026-04-23 17:40 25.47317 54.47637 19957 ft 402 kts 288°
2026-04-23 17:41 25.48190 54.44700 20231 ft 404 kts 288°
2026-04-23 17:41 25.49356 54.40776 20575 ft 406 kts 288°
2026-04-23 17:41 25.50817 54.35822 20981 ft 409 kts 288°
2026-04-23 17:42 25.52578 54.29809 21411 ft 412 kts 287°
2026-04-23 17:42 25.53463 54.26783 21612 ft 414 kts 288°
2026-04-23 17:42 25.54353 54.23747 21800 ft 415 kts 288°
2026-04-23 17:43 25.55247 54.20698 21987 ft 417 kts 288°
2026-04-23 17:43 25.56144 54.17641 22158 ft 418 kts 288°
2026-04-23 17:43 25.57043 54.14579 22331 ft 419 kts 288°
2026-04-23 17:43 25.57948 54.11498 22494 ft 421 kts 288°
2026-04-23 17:44 25.58854 54.08409 22662 ft 422 kts 288°
2026-04-23 17:44 25.59758 54.05318 22827 ft 423 kts 287°
2026-04-23 17:44 25.61543 53.99088 23125 ft 425 kts 287°
2026-04-23 17:45 25.62431 53.95957 23267 ft 426 kts 287°
2026-04-23 17:45 25.64211 53.89670 23532 ft 429 kts 287°
2026-04-23 17:45 25.65104 53.86515 23661 ft 429 kts 287°
2026-04-23 17:46 25.66897 53.80178 23913 ft 431 kts 287°
2026-04-23 17:46 25.67793 53.77010 24039 ft 432 kts 287°
2026-04-23 17:46 25.68692 53.73832 24165 ft 432 kts 287°
2026-04-23 17:47 25.69593 53.70648 24291 ft 433 kts 287°
2026-04-23 17:47 25.70490 53.67475 24415 ft 433 kts 287°
2026-04-23 17:47 25.72292 53.61083 24666 ft 434 kts 287°
2026-04-23 17:48 25.73189 53.57893 24790 ft 434 kts 287°
2026-04-23 17:48 25.74085 53.54694 24915 ft 434 kts 287°
2026-04-23 17:48 25.74976 53.51502 25039 ft 434 kts 287°
2026-04-23 17:48 25.75874 53.48296 25165 ft 434 kts 287°
2026-04-23 17:49 25.76768 53.45113 25289 ft 434 kts 287°
2026-04-23 17:49 25.77668 53.41911 25414 ft 433 kts 287°
2026-04-23 17:49 25.78564 53.38720 25538 ft 433 kts 287°
2026-04-23 17:49 25.79457 53.35534 25663 ft 432 kts 287°
2026-04-23 17:50 25.80348 53.32349 25787 ft 432 kts 287°
2026-04-23 17:50 25.82126 53.25990 26037 ft 431 kts 287°
2026-04-23 17:50 25.83010 53.22823 26161 ft 431 kts 287°
2026-04-23 17:51 25.83896 53.19649 26286 ft 430 kts 287°
2026-04-23 17:51 25.85002 53.16573 26410 ft 430 kts 294°
2026-04-23 17:51 25.87467 53.10534 26660 ft 429 kts 294°
2026-04-23 17:52 25.88680 53.07557 26783 ft 428 kts 294°
2026-04-23 17:52 25.91130 53.01535 27033 ft 427 kts 294°
2026-04-23 17:52 25.92353 52.98535 27158 ft 426 kts 294°
2026-04-23 17:53 25.94786 52.92545 27407 ft 426 kts 294°
2026-04-23 17:53 25.95997 52.89544 27532 ft 425 kts 294°
2026-04-23 17:53 25.97206 52.86549 27657 ft 425 kts 294°
2026-04-23 17:54 25.98414 52.83557 27782 ft 424 kts 294°
2026-04-23 17:54 25.99621 52.80568 27906 ft 424 kts 294°
2026-04-23 17:54 26.02036 52.74598 28156 ft 423 kts 294°
2026-04-23 17:55 26.04596 52.68724 28405 ft 422 kts 296°
2026-04-23 17:55 26.05933 52.65819 28530 ft 422 kts 297°
2026-04-23 17:55 26.07275 52.62920 28655 ft 421 kts 297°
2026-04-23 17:56 26.08608 52.60023 28781 ft 421 kts 296°
2026-04-23 17:56 26.11239 52.54219 29031 ft 420 kts 296°
2026-04-23 17:56 26.12541 52.51315 29155 ft 419 kts 296°
2026-04-23 17:57 26.13844 52.48414 29280 ft 419 kts 296°
2026-04-23 17:57 26.15149 52.45511 29406 ft 419 kts 296°
2026-04-23 17:57 26.17751 52.39720 29656 ft 418 kts 296°
2026-04-23 17:58 26.19050 52.36830 29781 ft 417 kts 296°
2026-04-23 17:58 26.20346 52.33949 29905 ft 417 kts 296°
2026-04-23 17:58 26.21642 52.31060 30030 ft 416 kts 296°
2026-04-23 17:58 26.22930 52.28169 30156 ft 416 kts 296°
2026-04-23 17:59 26.24197 52.25275 30281 ft 415 kts 295°
2026-04-23 17:59 26.25448 52.22382 30432 ft 413 kts 295°
2026-04-23 17:59 26.26657 52.19565 30813 ft 406 kts 295°
2026-04-23 17:59 26.27878 52.16715 31215 ft 398 kts 295°
2026-04-23 18:00 26.29060 52.13963 31613 ft 390 kts 295°
2026-04-23 18:00 26.30210 52.11292 31854 ft 388 kts 295°
2026-04-23 18:00 26.31380 52.08587 31946 ft 389 kts 295°
2026-04-23 18:01 26.33738 52.03137 32149 ft 390 kts 295°
2026-04-23 18:01 26.34911 52.00418 32269 ft 390 kts 295°
2026-04-23 18:01 26.36093 51.97681 32394 ft 390 kts 295°
2026-04-23 18:01 26.37267 51.94956 32519 ft 390 kts 294°
2026-04-23 18:02 26.37952 51.93106 32602 ft 389 kts 290°
2026-04-23 18:02 26.39223 51.89332 32769 ft 389 kts 290°
2026-04-23 18:02 26.40175 51.86508 32893 ft 388 kts 290°
2026-04-23 18:02 26.41121 51.83693 33018 ft 388 kts 290°
2026-04-23 18:03 26.42062 51.80876 33142 ft 388 kts 290°
2026-04-23 18:03 26.43000 51.78062 33267 ft 387 kts 290°
2026-04-23 18:03 26.43623 51.76196 33350 ft 387 kts 290°
2026-04-23 18:03 26.44880 51.72441 33517 ft 386 kts 290°
2026-04-23 18:04 26.45820 51.69638 33642 ft 385 kts 290°
2026-04-23 18:04 26.46760 51.66834 33767 ft 385 kts 290°
2026-04-23 18:04 26.47691 51.64047 33892 ft 384 kts 290°
2026-04-23 18:04 26.48625 51.61251 34017 ft 383 kts 290°
2026-04-23 18:05 26.49556 51.58469 34142 ft 382 kts 290°
2026-04-23 18:05 26.50483 51.55694 34266 ft 381 kts 290°
2026-04-23 18:05 26.51406 51.52921 34391 ft 380 kts 290°
2026-04-23 18:06 26.52925 51.48330 34598 ft 379 kts 290°
2026-04-23 18:06 26.53836 51.45575 34723 ft 377 kts 290°
2026-04-23 18:06 26.54741 51.42840 34847 ft 376 kts 290°
2026-04-23 18:06 26.55647 51.40105 34972 ft 375 kts 290°
2026-04-23 18:07 26.56551 51.37378 35097 ft 373 kts 290°
2026-04-23 18:07 26.57453 51.34654 35222 ft 372 kts 290°
2026-04-23 18:07 26.58347 51.31955 35346 ft 371 kts 290°
2026-04-23 18:07 26.59239 51.29260 35470 ft 369 kts 290°
2026-04-23 18:08 26.60125 51.26582 35595 ft 367 kts 290°
2026-04-23 18:08 26.61013 51.23904 35720 ft 365 kts 290°
2026-04-23 18:08 26.61894 51.21248 35849 ft 363 kts 290°
2026-04-23 18:08 26.62768 51.18613 35980 ft 361 kts 290°
2026-04-23 18:09 26.63638 51.15979 36009 ft 362 kts 290°
2026-04-23 18:09 26.65389 51.10678 36009 ft 365 kts 290°
2026-04-23 18:10 26.67153 51.05331 36009 ft 369 kts 290°
2026-04-23 18:10 26.68930 50.99921 36009 ft 373 kts 289°
2026-04-23 18:11 26.70693 50.94435 36009 ft 376 kts 289°
2026-04-23 18:11 26.72457 50.88902 36010 ft 380 kts 289°
2026-04-23 18:12 26.74244 50.83307 36010 ft 383 kts 289°
2026-04-23 18:12 26.76038 50.77670 36010 ft 387 kts 289°
2026-04-23 18:13 26.77851 50.71975 36009 ft 390 kts 289°
2026-04-23 18:13 26.79679 50.66237 36009 ft 393 kts 289°
2026-04-23 18:14 26.81558 50.60500 36009 ft 396 kts 290°
2026-04-23 18:14 26.83544 50.54723 36009 ft 399 kts 291°
2026-04-23 18:15 26.85542 50.48910 36009 ft 401 kts 290°
2026-04-23 18:15 26.87679 50.43130 36008 ft 404 kts 298°
2026-04-23 18:16 26.90606 50.37743 36009 ft 406 kts 301°
2026-04-23 18:16 26.93580 50.32349 36009 ft 408 kts 301°
2026-04-23 18:17 26.98048 50.24206 36009 ft 410 kts 301°
2026-04-23 18:17 27.01040 50.18735 36009 ft 412 kts 301°
2026-04-23 18:18 27.04023 50.13288 36009 ft 414 kts 302°
2026-04-23 18:18 27.07644 50.08195 35952 ft 416 kts 310°
2026-04-23 18:19 27.09553 50.05693 35475 ft 427 kts 310°
2026-04-23 18:19 27.11492 50.03147 35224 ft 434 kts 310°
2026-04-23 18:19 27.13470 50.00547 34973 ft 441 kts 310°
2026-04-23 18:19 27.15474 49.97909 34723 ft 447 kts 310°
2026-04-23 18:20 27.17515 49.95222 34471 ft 454 kts 310°
2026-04-23 18:20 27.19540 49.92550 34224 ft 459 kts 310°
2026-04-23 18:20 27.21626 49.89794 33973 ft 465 kts 310°
2026-04-23 18:20 27.23735 49.87006 33722 ft 470 kts 310°
2026-04-23 18:21 27.25858 49.84203 33471 ft 472 kts 310°
2026-04-23 18:21 27.27982 49.81400 33222 ft 471 kts 310°
2026-04-23 18:21 27.30099 49.78611 32972 ft 469 kts 310°
2026-04-23 18:21 27.32219 49.75816 32721 ft 467 kts 310°
2026-04-23 18:22 27.34315 49.73048 32472 ft 465 kts 310°
2026-04-23 18:22 27.36401 49.70285 32222 ft 463 kts 310°
2026-04-23 18:22 27.38478 49.67529 31971 ft 460 kts 310°
2026-04-23 18:22 27.40542 49.64790 31721 ft 458 kts 310°
2026-04-23 18:23 27.41936 49.62939 31551 ft 456 kts 310°
2026-04-23 18:23 27.46682 49.56639 30970 ft 451 kts 310°
2026-04-23 18:24 27.51267 49.51885 30469 ft 447 kts 321°
2026-04-23 18:24 27.53701 49.49713 30219 ft 445 kts 321°
2026-04-23 18:24 27.56124 49.47549 29968 ft 443 kts 321°
2026-04-23 18:25 27.60922 49.43252 29468 ft 439 kts 321°
2026-04-23 18:25 27.63308 49.41112 29218 ft 437 kts 321°
2026-04-23 18:25 27.65678 49.38983 28968 ft 434 kts 321°
2026-04-23 18:25 27.68031 49.36871 28719 ft 432 kts 321°
2026-04-23 18:26 27.70381 49.34761 28468 ft 430 kts 321°
2026-04-23 18:26 27.72714 49.32662 28218 ft 428 kts 321°
2026-04-23 18:26 27.75046 49.30563 27967 ft 426 kts 321°
2026-04-23 18:26 27.77360 49.28479 27716 ft 424 kts 321°
2026-04-23 18:27 27.79661 49.26405 27466 ft 422 kts 321°
2026-04-23 18:27 27.81951 49.24342 27216 ft 420 kts 321°
2026-04-23 18:27 27.84230 49.22284 26966 ft 418 kts 321°
2026-04-23 18:27 27.86499 49.20236 26716 ft 416 kts 322°
2026-04-23 18:28 27.88892 49.18412 26464 ft 414 kts 329°
2026-04-23 18:28 27.91382 49.16782 26214 ft 413 kts 329°
2026-04-23 18:28 27.93862 49.15159 25964 ft 411 kts 329°
2026-04-23 18:28 27.96331 49.13542 25714 ft 409 kts 329°
2026-04-23 18:29 27.98787 49.11933 25464 ft 407 kts 329°
2026-04-23 18:29 28.01233 49.10332 25213 ft 405 kts 329°
2026-04-23 18:29 28.03669 49.08737 24963 ft 403 kts 329°
2026-04-23 18:29 28.06091 49.07148 24683 ft 401 kts 329°
2026-04-23 18:30 28.08467 49.05583 24386 ft 399 kts 329°
2026-04-23 18:30 28.10889 49.03985 24082 ft 397 kts 329°
2026-04-23 18:30 28.13265 49.02414 23782 ft 395 kts 329°
2026-04-23 18:30 28.15598 49.00871 23481 ft 392 kts 329°
2026-04-23 18:31 28.17943 48.99326 23145 ft 389 kts 329°
2026-04-23 18:31 28.20274 48.97791 22845 ft 387 kts 329°
2026-04-23 18:31 28.22600 48.96260 22545 ft 385 kts 329°
2026-04-23 18:31 28.24919 48.94734 22243 ft 383 kts 329°
2026-04-23 18:32 28.27214 48.93224 21944 ft 381 kts 329°
2026-04-23 18:32 28.29501 48.91716 21644 ft 379 kts 329°
2026-04-23 18:32 28.31772 48.90215 21344 ft 377 kts 329°
2026-04-23 18:32 28.34036 48.88712 21042 ft 375 kts 329°
2026-04-23 18:33 28.36279 48.87223 20742 ft 373 kts 329°
2026-04-23 18:33 28.38512 48.85739 20441 ft 371 kts 329°
2026-04-23 18:33 28.40733 48.84266 20141 ft 369 kts 329°
2026-04-23 18:33 28.42945 48.82801 19841 ft 367 kts 329°
2026-04-23 18:34 28.45138 48.81346 19541 ft 365 kts 329°
2026-04-23 18:34 28.47323 48.79894 19240 ft 363 kts 329°
2026-04-23 18:34 28.49489 48.78455 18947 ft 360 kts 329°
2026-04-23 18:34 28.51653 48.77019 18696 ft 359 kts 329°
2026-04-23 18:35 28.53805 48.75593 18446 ft 357 kts 329°
2026-04-23 18:35 28.55925 48.74138 18196 ft 356 kts 324°
2026-04-23 18:35 28.57831 48.72357 17945 ft 353 kts 315°
2026-04-23 18:35 28.59430 48.70249 17695 ft 351 kts 306°
2026-04-23 18:36 28.60882 48.68054 17444 ft 344 kts 306°
2026-04-23 18:36 28.62322 48.65888 17193 ft 341 kts 307°
2026-04-23 18:36 28.63745 48.63754 16943 ft 339 kts 307°
2026-04-23 18:36 28.65164 48.61623 16693 ft 337 kts 307°
2026-04-23 18:37 28.66582 48.59494 16441 ft 335 kts 307°
2026-04-23 18:37 28.67987 48.57384 16191 ft 334 kts 307°
2026-04-23 18:37 28.69385 48.55281 15941 ft 332 kts 307°
2026-04-23 18:37 28.70777 48.53184 15690 ft 331 kts 307°
2026-04-23 18:38 28.72161 48.51098 15440 ft 329 kts 307°
2026-04-23 18:38 28.73700 48.49180 15188 ft 328 kts 319°
2026-04-23 18:38 28.75589 48.47742 14938 ft 327 kts 331°
2026-04-23 18:38 28.77586 48.46513 14689 ft 326 kts 331°
2026-04-23 18:39 28.79572 48.45287 14439 ft 324 kts 331°
2026-04-23 18:39 28.81527 48.44074 14191 ft 323 kts 331°
2026-04-23 18:39 28.83495 48.42848 13941 ft 322 kts 331°
2026-04-23 18:39 28.85452 48.41628 13691 ft 320 kts 331°
2026-04-23 18:40 28.87403 48.40413 13440 ft 319 kts 331°
2026-04-23 18:40 28.89351 48.39203 13189 ft 317 kts 331°
2026-04-23 18:40 28.91287 48.38000 12939 ft 316 kts 331°
2026-04-23 18:40 28.93198 48.36808 12792 ft 312 kts 331°
2026-04-23 18:41 28.95100 48.35623 12392 ft 311 kts 331°
2026-04-23 18:41 28.96999 48.34442 12045 ft 310 kts 331°
2026-04-23 18:41 28.98873 48.33275 11794 ft 304 kts 331°
2026-04-23 18:41 29.00709 48.32131 11544 ft 299 kts 331°
2026-04-23 18:42 29.02525 48.31001 11293 ft 294 kts 331°
2026-04-23 18:42 29.04299 48.29895 11081 ft 288 kts 330°
2026-04-23 18:42 29.06037 48.28808 10915 ft 280 kts 330°
2026-04-23 18:42 29.07747 48.27739 10910 ft 282 kts 330°
2026-04-23 18:43 29.09459 48.26669 10637 ft 279 kts 330°
2026-04-23 18:43 29.11158 48.25608 10319 ft 277 kts 331°
2026-04-23 18:43 29.12848 48.24554 9995 ft 276 kts 331°
2026-04-23 18:43 29.14525 48.23508 9668 ft 274 kts 330°
2026-04-23 18:44 29.16194 48.22465 9337 ft 273 kts 330°
2026-04-23 18:44 29.17850 48.21430 9001 ft 271 kts 331°
2026-04-23 18:44 29.19505 48.20397 8657 ft 269 kts 330°
2026-04-23 18:44 29.21142 48.19370 8310 ft 268 kts 330°
2026-04-23 18:45 29.22220 48.18694 8078 ft 267 kts 330°
2026-04-23 18:45 29.23842 48.17676 7721 ft 265 kts 330°
2026-04-23 18:45 29.25993 48.16323 7243 ft 263 kts 330°
2026-04-23 18:45 29.27593 48.15319 6884 ft 261 kts 330°
2026-04-23 18:46 29.29182 48.14325 6524 ft 260 kts 330°
2026-04-23 18:46 29.30754 48.13342 6304 ft 253 kts 330°
2026-04-23 18:46 29.32267 48.12393 6176 ft 243 kts 330°
2026-04-23 18:46 29.33723 48.11482 6050 ft 234 kts 330°
2026-04-23 18:47 29.35129 48.10601 5924 ft 226 kts 330°
2026-04-23 18:47 29.36468 48.09760 5799 ft 219 kts 330°
2026-04-23 18:47 29.37803 48.08920 5671 ft 212 kts 330°
2026-04-23 18:47 29.39082 48.08115 5504 ft 208 kts 330°
2026-04-23 18:48 29.40328 48.07331 5290 ft 207 kts 330°
2026-04-23 18:48 29.41579 48.06525 5067 ft 206 kts 324°
2026-04-23 18:48 29.42535 48.05374 4943 ft 194 kts 300°
2026-04-23 18:48 29.42982 48.03979 4811 ft 182 kts 277°
2026-04-23 18:49 29.42940 48.02575 4678 ft 172 kts 256°
2026-04-23 18:49 29.42526 48.01325 4547 ft 164 kts 246°
2026-04-23 18:49 29.42227 48.00539 4462 ft 160 kts 246°
2026-04-23 18:49 29.41795 47.99392 4329 ft 155 kts 246°
2026-04-23 18:50 29.41507 47.98628 4211 ft 153 kts 246°
2026-04-23 18:50 29.40809 47.96778 3891 ft 152 kts 246°
2026-04-23 18:50 29.40389 47.95666 3696 ft 151 kts 246°
2026-04-23 18:50 29.39971 47.94562 3503 ft 151 kts 246°
2026-04-23 18:51 29.39554 47.93458 3308 ft 150 kts 246°
2026-04-23 18:51 29.39140 47.92359 3115 ft 150 kts 246°
2026-04-23 18:51 29.38724 47.91266 2929 ft 149 kts 243°
2026-04-23 18:51 29.38333 47.90612 2892 ft 148 kts 226°
2026-04-23 18:52 29.37505 47.89947 2827 ft 148 kts 201°
2026-04-23 18:52 29.36496 47.89739 2724 ft 149 kts 176°
2026-04-23 18:52 29.35491 47.90057 2575 ft 149 kts 155°
2026-04-23 18:52 29.34550 47.90560 2395 ft 149 kts 156°
2026-04-23 18:53 29.33609 47.91062 2204 ft 148 kts 156°
2026-04-23 18:53 29.32689 47.91553 2013 ft 148 kts 156°
2026-04-23 18:53 29.31756 47.92050 1834 ft 147 kts 156°
2026-04-23 18:53 29.30831 47.92543 1627 ft 146 kts 156°
2026-04-23 18:54 29.29908 47.93034 1447 ft 142 kts 156°
2026-04-23 18:54 29.29022 47.93506 1246 ft 140 kts 156°
2026-04-23 18:54 29.28156 47.93967 1059 ft 139 kts 156°
2026-04-23 18:54 29.27273 47.94437 874 ft 138 kts 156°
2026-04-23 18:55 29.26416 47.94893 693 ft 137 kts 156°
2026-04-23 18:55 29.25550 47.95353 511 ft 137 kts 156°
2026-04-23 18:55 29.24686 47.95813 327 ft 137 kts 156°
2026-04-23 18:55 29.23831 47.96270 209 ft 136 kts 156°
2026-04-23 18:56 29.23029 47.96695 163 ft 111 kts 155°
2026-04-23 18:56 29.22489 47.96981 163 ft 61 kts 155°
2026-04-23 18:56 29.22225 47.97122 165 ft 30 kts 155°
2026-04-23 18:56 29.22049 47.97220 167 ft 26 kts 145°
2026-04-23 18:57 29.21953 47.97362 165 ft 10 kts 112°
2026-04-23 18:57 29.21951 47.97368 165 ft 0 kts 111°
2026-04-23 18:57 29.21945 47.97385 165 ft 4 kts 112°
2026-04-23 18:57 29.21932 47.97420 165 ft 9 kts 112°
2026-04-23 18:58 29.21941 47.97498 166 ft 9 kts 45°
2026-04-23 18:58 29.22000 47.97493 166 ft 15 kts 335°
2026-04-23 18:58 29.22168 47.97403 167 ft 29 kts 335°
2026-04-23 18:58 29.22358 47.97301 167 ft 31 kts 335°
2026-04-23 18:59 29.22557 47.97195 167 ft 32 kts 335°
2026-04-23 18:59 29.22763 47.97083 167 ft 33 kts 334°
2026-04-23 18:59 29.22978 47.96972 168 ft 34 kts 335°
2026-04-23 18:59 29.23189 47.96861 165 ft 31 kts 336°
2026-04-23 19:00 29.23391 47.96754 164 ft 33 kts 335°
2026-04-23 19:00 29.23604 47.96641 163 ft 34 kts 335°
2026-04-23 19:00 29.23819 47.96525 164 ft 35 kts 335°
2026-04-23 19:00 29.24040 47.96407 164 ft 35 kts 335°
2026-04-23 19:01 29.24263 47.96289 164 ft 36 kts 337°
2026-04-23 19:01 29.24494 47.96166 165 ft 36 kts 335°
2026-04-23 19:01 29.24724 47.96042 165 ft 37 kts 334°
2026-04-23 19:01 29.24947 47.95925 165 ft 28 kts 335°
2026-04-23 19:02 29.25036 47.95924 166 ft 7 kts 70°
2026-04-23 19:02 29.25036 47.95968 167 ft 4 kts 107°
2026-04-23 19:02 29.25039 47.95996 167 ft 4 kts 76°
2026-04-23 19:02 29.25052 47.96029 168 ft 0 kts 66°